TimeAKDT,TemperatureF,Dew PointF,Humidity,Sea Level PressureIn,VisibilityMPH,Wind Direction,Wind SpeedMPH,Gust SpeedMPH,PrecipitationIn,Events,Conditions,WindDirDegrees,DateUTC
12:55 AM,69.3,25.7,20,30.09,10.0,Calm,Calm,-,N/A,,Clear,0,2013-06-14 08:55:00
1:55 AM,68.7,24.6,19,30.11,10.0,West,1.2,-,N/A,,Clear,270,2013-06-14 09:55:00
2:55 AM,61.3,27.1,27,30.12,10.0,WSW,5.8,-,N/A,,Clear,250,2013-06-14 10:55:00
3:55 AM,65.3,25.9,23,30.12,10.0,Variable,3.5,-,N/A,,Clear,0,2013-06-14 11:55:00
4:55 AM,59.9,25.9,27,30.14,10.0,WNW,2.3,-,N/A,,Clear,300,2013-06-14 12:55:00
5:55 AM,60.1,26.8,28,30.15,10.0,NNE,4.6,-,N/A,,Clear,20,2013-06-14 13:55:00
6:55 AM,59.5,32.0,35,30.16,10.0,NE,2.3,-,N/A,,Partly Cloudy,40,2013-06-14 14:55:00
7:55 AM,59.2,32.5,37,30.17,10.0,SW,4.6,-,N/A,,Clear,220,2013-06-14 15:55:00
8:55 AM,60.1,35.1,39,30.18,10.0,South,6.9,-,N/A,,Mostly Cloudy,190,2013-06-14 16:55:00
9:55 AM,60.3,38.3,44,30.19,10.0,SSW,3.5,-,N/A,,Mostly Cloudy,210,2013-06-14 17:55:00
10:55 AM,62.6,42.6,48,30.20,10.0,West,3.5,-,N/A,,Mostly Cloudy,270,2013-06-14 18:55:00
11:55 AM,70.0,46.8,43,30.19,10.0,Variable,4.6,-,N/A,,Mostly Cloudy,0,2013-06-14 19:55:00
12:55 PM,72.5,46.2,39,30.19,10.0,SSW,11.5,19.6,N/A,,Clear,200,2013-06-14 20:55:00
1:55 PM,73.4,43.7,34,30.19,10.0,South,8.1,-,N/A,,Clear,190,2013-06-14 21:55:00
2:55 PM,74.1,41.2,31,30.19,10.0,SSW,9.2,18.4,N/A,,Clear,210,2013-06-14 22:55:00
3:55 PM,75.2,41.0,29,30.18,10.0,SSW,11.5,17.3,N/A,,Partly Cloudy,210,2013-06-14 23:55:00
4:55 PM,75.4,39.7,28,30.19,10.0,SW,9.2,-,N/A,,Clear,220,2013-06-15 00:55:00
5:55 PM,74.8,38.5,27,30.19,10.0,Variable,6.9,-,N/A,,Clear,0,2013-06-15 01:55:00
6:55 PM,74.3,37.2,26,30.19,10.0,SSW,8.1,17.3,N/A,,Clear,200,2013-06-15 02:55:00
7:55 PM,72.1,46.4,40,30.19,10.0,Variable,5.8,-,N/A,,Partly Cloudy,0,2013-06-15 03:55:00
8:55 PM,68.5,46.9,46,30.20,10.0,West,9.2,17.3,N/A,,Partly Cloudy,260,2013-06-15 04:55:00
9:55 PM,67.3,46.9,48,30.21,10.0,Variable,1.2,-,N/A,,Clear,0,2013-06-15 05:55:00
10:55 PM,64.9,47.5,53,30.23,10.0,Variable,3.5,-,N/A,,Clear,0,2013-06-15 06:55:00
11:55 PM,62.6,48.2,59,30.23,10.0,NNE,3.5,-,N/A,,Scattered Clouds,20,2013-06-15 07:55:00